Location: Unspecified
(38.7273°N, 77.0677°W)
Time: 23:02:36
(UTC-04:00)

CAS-4B - Pass Details

Date: 29 September 2021
Orbit: 528 x 541 km, 43.0° (Epoch: 27 October)

Event Time Altitude Azimuth Distance (km) Brightness Sun altitude
Exits shadow 05:26:26 35° 317° (NW) 868 ? -19.4°
Maximum altitude 05:27:45 50° 10° (N) 674 ? -19.2°
Drops below altitude 10° 05:31:42 10° 87° (E) 1,767 ? -18.4°
Sets 05:33:59 0° 92° (E) 2,656 ? -18.0°
